Location: Goettingen
(51.5300°N, 9.9433°E)
Time: 17:59:08
(UTC+02:00)

Tiangong - Visible Passes

Search period start: 26 September 2021 00:00
Search period end: 06 October 2021 00:00
Orbit: 382 x 385 km, 41.5° (Epoch: 26 September)

Date Brightness Start Highest point End Pass type
(mag) Time Alt. Az. Time Alt. Az. Time Alt. Az.
29 Sep 3.7 06:14:51 10° S 06:16:04 12° SSE 06:17:16 10° SE visible
01 Oct 3.4 05:51:45 12° SSW 05:52:42 13° S 05:54:18 10° SE visible
02 Oct 3.5 06:27:25 10° SW 06:29:01 13° S 06:30:38 10° SSE visible
03 Oct 3.5 05:29:50 13° SSE 05:29:50 13° SSE 05:31:01 10° SSE visible
04 Oct 3.5 06:05:00 11° SSW 06:05:36 12° SSW 06:06:50 10° SSE visible
